STARLINK-1456, 45673

Orbit data source: Space-Track

STARLINK-1456, 45673 is a payload satellite owned by SpaceX/Seattle (US) in LEO that was launched on Thu, 04 Jun 2020 UTC via an FALCON 9 launch vehicle from the Air Force Eastern Test Range (AFETR). Payload-class satellites include a variety of spacecraft equipped with specific instruments for various scientific and technological missions. These include communications satellites like Starlink; space stations such as the ISS; scientific satellites like the Hubble; Earth observation satellites from companies like Planet Labs, Umbra, and HawkEye 360; GPS; miniature CubeSats for education and research; and military/defense satellites.

Loading next visibility...
Identifier
45673, 2020-035S
Orbit
LEO
Country
Flag of USUS
Related business
Manufacturer
SpaceX/Seattle
Mission
Operational Commercial Communications
Bus & Motor
STARLINK, Unknown motor
Mass
260 kg wet, ~248 kg dry
Launch date (UTC)
2020-06-04 (5 years ago)
Launch vehicle
FALCON 9
Launch site
Air Force Eastern Test Range (AFETR)
Object type
Payload
Rocket body
Debris
Shape & HBR
Box + 1 Pan, 10.1 m
Radar Cross Section
13.562 m², Large (>1 m²)

Expand to show TLE details & history
Last TLE update: 15 hours ago

TLE from 15 hours ago
0 STARLINK-1456
1 45673U 20035S   25287.50585678 -.00006746  00000-0 -43470-3 0  9999
2 45673  53.0561   2.8659 0001350  87.8583 272.2560 15.06374571296702
Epoch: 2025-10-14T12:08Z
TLE epoch observation values (Epoch: 2025-10-14T12:08:26.025Z)
Latitude
-0.00008°
Longitude
157.46409°
Altitude
548.132 km
Speed
7.589 km/s
True Right ascension
00h 11m 27s
True Declination
0° 00' 00"
Sunlit
Object was in full shadow at epoch
Visualization orbit readout
Latitude
Unknown
Longitude
Unknown
Altitude
Unknown
Speed
Unknown
Apparent Right ascension
Unknown
Apparent Declination
Unknown
Sunlit
N/A
Visualization observer readout
Local Sidereal Time
22:05:52
Azimuth
Unknown
Elevation
Unknown
Doppler factor
Unknown
Orbital elements
Apogee altitude
548.495 km
Perigee altitude
546.625 km
Semi-major axis
6,925.697 km
Eccentricity
0.00014
Inclination
53.0561°
RAAN
2.8659°
Arg. of periapsis
87.8583°
True anomaly
272.24054°
Mean anomaly
272.256°
Eccentric anomaly
272.24827°
Mean motion
3.76572 °/min
Orbital period
95.6 mins
BSTAR
-0.0004347
Loading maneuver chart data...
Computing Atmospheric mass density...
Loading historical data...
Loading historical data...
Loading historical data...
Loading historical data...
Loading historical data...
Loading historical data...
Loading historical data...

Documentation

Showing up to 5 results
|